Marshfield, WI

1:32 AM CST on November 17, 2019 (GMT -0600)
Marshfield Municipal

Weather History for KMFI - September, 2019

Change the Weather History Date:

Monday, September 9, 2019

  Actual Average Record
Temperature  
Mean Temperature 58 °F -  
Max Temperature 64 °F 75 °F 92 °F (1955)
Min Temperature 54 °F 50 °F 32 °F (1914)
Degree Days  
Heating Degree Days 7    
Growing Degree Days 8 (Base 50)    
Moisture  
Dew Point 56 °F    
Average Humidity 89    
Maximum Humidity 100    
Minimum Humidity 75    
Precipitation  
Precipitation 1.01 in - - ()
Sea Level Pressure  
Sea Level Pressure 30.08 in    
Wind  
Wind Speed 10 mph (ESE)    
Max Wind Speed 17 mph    
Max Gust Speed 28 mph    
Visibility 6 miles    
Events Rain , Thunderstorm    
Averages and records for this station are not official NWS values.
T = Trace of Precipitation, MM = Missing Value Source: NWS Daily Summary

Daily Weather History Graph

Daily Weather History Graph

Search for Another Location

Airport or City:

Astronomy

Sep. 09, 2019 Rise Set
Actual Time 6:32 AM CDT 7:23 PM CDT
Civil Twilight 6:02 AM CDT 7:52 PM CDT
Nautical Twilight 5:27 AM CDT 8:27 PM CDT
Astronomical Twilight 4:50 AM CDT 9:04 PM CDT
Moon 5:29 PM CDT (9/9) 1:51 AM CDT (9/9)
Length of Visible Light 13h 49m
Length of Day
12h 50m
Waxing Gibbous, 83% of the Moon is Illuminated
Sep 9
Waxing Gibbous
Sep 13
Full
Sep 21
Last Quarter
Sep 28
New
Oct 5
First Quarter

Hourly Weather History & Observations

Time (CDT) Temp. Dew Point Humidity Pressure Visibility Wind Dir Wind Speed Gust Speed Precip Events Conditions
12:10 AM 55.0 °F 50.0 °F 83% 30.18 in 10.0 mi ESE 9.2 mph - N/A   Overcast
12:54 AM 54.0 °F 50.0 °F 86% 30.22 in 10.0 mi East 4.6 mph - N/A   Overcast
1:54 AM 54.0 °F 50.0 °F 86% 30.22 in 10.0 mi East 4.6 mph - N/A   Overcast
2:54 AM 54.0 °F 48.9 °F 83% 30.21 in 10.0 mi East 4.6 mph - N/A   Overcast
3:54 AM 54.0 °F 48.9 °F 83% 30.20 in 10.0 mi East 5.8 mph - N/A   Overcast
4:54 AM 54.0 °F 48.9 °F 83% 30.20 in 10.0 mi East 6.9 mph - N/A   Overcast
5:54 AM 54.0 °F 48.9 °F 83% 30.20 in 10.0 mi East 8.1 mph - N/A   Overcast
6:54 AM 54.0 °F 48.9 °F 83% 30.20 in 10.0 mi East 8.1 mph - N/A   Overcast
7:54 AM 54.0 °F 50.0 °F 86% 30.20 in 10.0 mi East 9.2 mph - N/A   Overcast
8:54 AM 55.0 °F 51.1 °F 86% 30.21 in 10.0 mi ESE 9.2 mph - N/A   Overcast
9:54 AM 57.0 °F 53.1 °F 87% 30.20 in 10.0 mi East 12.7 mph - N/A   Overcast
10:54 AM 59.0 °F 54.0 °F 83% 30.18 in 10.0 mi East 11.5 mph - N/A   Overcast
11:54 AM 61.0 °F 53.1 °F 75% 30.18 in 10.0 mi SE 17.3 mph 21.9 mph N/A   Overcast
12:31 PM 61.0 °F 54.0 °F 78% 30.16 in 10.0 mi SE 16.1 mph 24.2 mph N/A   Overcast
12:54 PM 61.0 °F 54.0 °F 78% 30.16 in 10.0 mi SE 12.7 mph 21.9 mph 0.00 in   Overcast
1:50 PM 60.8 °F 55.4 °F 82% 30.13 in 6.0 mi ESE 8.1 mph - N/A   Overcast
1:54 PM 60.1 °F 55.9 °F 86% 30.14 in 6.0 mi ESE 11.5 mph - N/A   Overcast
2:54 PM 60.1 °F 57.0 °F 90% 30.13 in 2.5 mi ESE 11.5 mph - 0.02 in Rain Rain
3:08 PM 60.1 °F 57.0 °F 90% 30.10 in 8.0 mi ESE 13.8 mph 21.9 mph 0.02 in Rain Light Rain
3:37 PM 60.1 °F 57.0 °F 90% 30.09 in 4.0 mi ESE 13.8 mph 24.2 mph 0.05 in Rain Rain
3:54 PM 59.0 °F 57.0 °F 93% 30.07 in 5.0 mi ESE 16.1 mph - 0.05 in Rain Light Rain
4:07 PM 59.0 °F 57.0 °F 93% 30.07 in 5.0 mi ESE 17.3 mph 27.6 mph 0.01 in Rain Light Rain
4:20 PM 60.1 °F 57.0 °F 90% 30.08 in 8.0 mi SE 16.1 mph 24.2 mph 0.01 in   Overcast
4:46 PM 59.0 °F 57.0 °F 93% 30.06 in 2.5 mi ESE 16.1 mph 24.2 mph 0.04 in Rain Light Rain
4:54 PM 59.0 °F 57.0 °F 93% 30.07 in 6.0 mi ESE 17.3 mph 27.6 mph 0.04 in Rain Light Rain
5:54 PM 60.1 °F 57.0 °F 90% 30.03 in 8.0 mi SE 16.1 mph 25.3 mph 0.00 in   Overcast
6:11 PM 60.1 °F 57.0 °F 90% 30.02 in 8.0 mi SE 16.1 mph 26.5 mph N/A Thunderstorm Overcast
6:18 PM 60.1 °F 57.0 °F 90% 30.02 in 7.0 mi ESE 13.8 mph 26.5 mph N/A Thunderstorm Thunderstorm
6:42 PM 60.1 °F 57.9 °F 93% 30.02 in 5.0 mi SE 12.7 mph 23.0 mph 0.00 in Thunderstorm Overcast
6:51 PM 60.8 °F 57.2 °F 88% 30.02 in 4.0 mi SE 16.1 mph 25.3 mph 0.00 in   Overcast
6:54 PM 60.1 °F 57.9 °F 93% 30.02 in 4.0 mi ESE 15.0 mph 25.3 mph 0.00 in   Overcast
7:22 PM 60.1 °F 57.9 °F 93% 30.00 in 5.0 mi SE 13.8 mph 24.2 mph 0.00 in   Overcast
7:54 PM 60.1 °F 59.0 °F 96% 30.00 in 4.0 mi SE 16.1 mph 24.2 mph 0.00 in   Overcast
8:54 PM 61.0 °F 59.0 °F 93% 29.97 in 4.0 mi SE 15.0 mph - N/A   Overcast
9:18 PM 62.1 °F 60.1 °F 93% 29.96 in 4.0 mi SE 15.0 mph - 0.00 in Rain , Thunderstorm Light Rain
9:29 PM 62.1 °F 60.1 °F 93% 29.98 in 1.8 mi SE 6.9 mph - 0.15 in Rain , Thunderstorm Heavy Thunderstorms and Rain
9:47 PM 61.0 °F 60.1 °F 97% 29.99 in 1.0 mi East 10.4 mph - 0.39 in Rain , Thunderstorm Heavy Thunderstorms and Rain
9:50 PM 60.8 °F 60.8 °F 100% 29.99 in 1.2 mi East 9.2 mph - 0.40 in Rain , Thunderstorm Heavy Thunderstorms and Rain
9:54 PM 61.0 °F 60.1 °F 97% 29.99 in 1.8 mi East 8.1 mph - 0.41 in Rain , Thunderstorm Thunderstorms and Rain
9:57 PM 61.0 °F 60.1 °F 97% 29.99 in 2.5 mi Variable 5.8 mph - 0.01 in Rain , Thunderstorm Thunderstorms and Rain
10:01 PM 61.0 °F 60.1 °F 97% 29.99 in 2.5 mi SE 5.8 mph - 0.02 in Rain Heavy Rain
10:26 PM 62.1 °F 60.1 °F 93% 29.99 in 1.8 mi SE 3.5 mph - 0.20 in Rain Heavy Rain
10:33 PM 62.1 °F 61.0 °F 96% 29.98 in 1.2 mi ESE 8.1 mph - 0.31 in Rain Heavy Rain
10:51 PM 62.6 °F 60.8 °F 94% 29.97 in 2.0 mi East 6.9 mph - 0.48 in Rain Light Rain
10:54 PM 62.1 °F 60.1 °F 93% 29.97 in 2.5 mi East 5.8 mph - 0.48 in Rain Light Rain
11:01 PM 62.1 °F 60.1 °F 93% 29.96 in 4.0 mi East 8.1 mph - 0.00 in Rain Light Rain
11:54 PM 64.9 °F 63.0 °F 93% 29.94 in 5.0 mi South 12.7 mph - 0.01 in   Overcast